Willimantic, CT

3:02 PM EST on December 07, 2019 (GMT -0500)
Windham

Weather History for KIJD - October, 2019

Change the Weather History Date:

Monday, October 7, 2019

  Actual Average Record
Temperature  
Mean Temperature 68 °F -  
Max Temperature 77 °F 66 °F 87 °F (1959)
Min Temperature 59 °F 37 °F 24 °F (1958)
Cooling Degree Days 3    
Growing Degree Days 18 (Base 50)    
Moisture  
Dew Point 60 °F    
Average Humidity 79    
Maximum Humidity 97    
Minimum Humidity 56    
Precipitation  
Precipitation 0.08 in - - ()
Sea Level Pressure  
Sea Level Pressure 30.16 in    
Wind  
Wind Speed 9 mph ()    
Max Wind Speed 20 mph    
Max Gust Speed 28 mph    
Visibility 8.6 miles    
Events Rain    
Averages and records for this station are not official NWS values.
T = Trace of Precipitation, MM = Missing Value Source: Averaged Metar Reports

Daily Weather History Graph

Daily Weather History Graph

Search for Another Location

Airport or City:

Astronomy

Oct. 07, 2019 Rise Set
Actual Time 6:51 AM EDT 6:20 PM EDT
Civil Twilight 6:23 AM EDT 6:48 PM EDT
Nautical Twilight 5:51 AM EDT 7:20 PM EDT
Astronomical Twilight 5:19 AM EDT 7:52 PM EDT
Moon 3:46 PM EDT 12:35 AM EDT
Length of Visible Light 12h 24m
Length of Day
11h 28m
Waxing Gibbous, 69% of the Moon is Illuminated
Oct 7
Waxing Gibbous
Oct 13
Full
Oct 21
Last Quarter
Oct 27
New
Nov 4
First Quarter

Hourly Weather History & Observations

Time (EDT) Temp. Dew Point Humidity Pressure Visibility Wind Dir Wind Speed Gust Speed Precip Events Conditions
12:52 AM 66.9 °F 61.0 °F 81% 30.25 in 10.0 mi SSW 9.2 mph - N/A   Overcast
1:52 AM 66.9 °F 61.0 °F 81% 30.24 in 10.0 mi SSW 8.1 mph - N/A   Overcast
3:52 AM 66.9 °F 62.1 °F 84% 30.20 in 10.0 mi SSW 11.5 mph - N/A   Overcast
4:52 AM 66.9 °F 61.0 °F 81% 30.19 in 10.0 mi South 8.1 mph - N/A   Overcast
5:52 AM 66.9 °F 60.1 °F 79% 30.20 in 10.0 mi South 9.2 mph - N/A   Overcast
6:52 AM 66.9 °F 60.1 °F 79% 30.19 in 10.0 mi South 8.1 mph - N/A   Overcast
7:52 AM 66.9 °F 61.0 °F 81% 30.19 in 10.0 mi South 5.8 mph - N/A   Overcast
8:52 AM 68.0 °F 61.0 °F 78% 30.19 in 10.0 mi South 8.1 mph - N/A   Overcast
9:52 AM 71.1 °F 61.0 °F 70% 30.18 in 10.0 mi SSW 13.8 mph 19.6 mph N/A   Overcast
10:52 AM 73.0 °F 61.0 °F 66% 30.16 in - South 19.6 mph - N/A   Unknown
11:52 AM 73.9 °F 61.0 °F 64% 30.14 in 10.0 mi SSW 13.8 mph 23.0 mph N/A   Mostly Cloudy
12:52 PM 75.0 °F 60.1 °F 60% 30.12 in 10.0 mi SSW 18.4 mph 27.6 mph N/A   Mostly Cloudy
1:52 PM 77.0 °F 60.1 °F 56% 30.09 in 10.0 mi SW 16.1 mph 27.6 mph N/A   Overcast
2:52 PM 75.0 °F 60.1 °F 60% 30.08 in 10.0 mi SSW 16.1 mph 21.9 mph N/A   Mostly Cloudy
3:52 PM 75.0 °F 61.0 °F 62% 30.08 in 10.0 mi SW 17.3 mph 27.6 mph N/A   Scattered Clouds
4:52 PM 73.0 °F 62.1 °F 68% 30.08 in 10.0 mi SSW 11.5 mph 23.0 mph N/A   Overcast
5:52 PM 72.0 °F 63.0 °F 73% 30.08 in 10.0 mi SSW 13.8 mph - N/A   Overcast
6:52 PM 70.0 °F 63.0 °F 78% 30.09 in 10.0 mi South 11.5 mph - N/A   Overcast
7:52 PM 69.1 °F 62.1 °F 78% 30.10 in 10.0 mi SSW 6.9 mph - N/A   Overcast
8:36 PM 64.0 °F 57.9 °F 80% 30.15 in 10.0 mi NNW 16.1 mph 21.9 mph N/A   Overcast
8:52 PM 62.1 °F 59.0 °F 90% 30.15 in 7.0 mi North 10.4 mph - 0.00 in Rain Light Rain
9:36 PM 61.0 °F 60.1 °F 97% 30.17 in 4.0 mi NNW 3.5 mph - 0.06 in Rain Light Rain
9:45 PM 61.0 °F 60.1 °F 97% 30.18 in 4.0 mi NNW 6.9 mph - 0.06 in Rain Light Rain
9:52 PM 60.1 °F 59.0 °F 96% 30.18 in 4.0 mi Calm Calm - 0.07 in Rain Light Rain
10:01 PM 60.1 °F 59.0 °F 96% 30.17 in 4.0 mi North 8.1 mph - 0.00 in Rain Light Rain
10:09 PM 60.1 °F 59.0 °F 96% 30.18 in 5.0 mi Calm Calm - 0.00 in Rain Light Rain
10:52 PM 59.0 °F 57.9 °F 96% 30.19 in 4.0 mi NNE 5.8 mph - 0.01 in Rain Light Rain
11:52 PM 59.0 °F 57.9 °F 96% 30.19 in 10.0 mi North 3.5 mph - 0.00 in   Overcast